FW5819 Weather Reports


time (UTC)temp
F
wind
direction
speed
knots
gust
knots
rain 1hr
in
rain 24hr
in
rain mn
in
humidity
%
barometer
mb
20260504044535 51 183 3.5 10.4 0.00 0.00 0.00 69 1010.8
20260504043045 50 234 3.5 7.8 0.00 0.00 0.00 69 1010.9
20260504041536 50 222 2.6 7.0 0.00 0.00 0.00 70 1011.0
20260504040035 50 192 2.6 9.6 0.00 0.00 0.00 70 1011.2
20260504034537 50 158 1.7 4.3 0.00 0.00 0.00 70 1011.4
20260504033038 51 229 0.9 5.2 0.00 0.00 0.00 69 1011.4
20260504031540 51 193 1.7 6.1 0.00 0.00 0.00 69 1011.8
20260504030035 51 185 0.9 7.0 0.00 0.00 0.00 68 1011.9
20260504024536 51 227 0.9 5.2 0.00 0.00 0.00 68 1012.0
20260504023034 52 242 1.7 7.8 0.00 0.00 0.00 67 1012.2
20260504021533 52 232 1.7 11.3 0.00 0.00 0.00 66 1012.2
20260504020036 52 214 2.6 7.8 0.00 0.00 0.00 66 1012.2
20260504014540 52 279 0.9 7.8 0.00 0.00 0.00 65 1012.3
20260504013047 53 241 3.5 10.4 0.00 0.00 0.00 64 1012.3
20260504011538 53 236 1.7 7.8 0.00 0.00 0.00 63 1012.3
20260504010039 54 284 4.3 9.6 0.00 0.00 0.00 62 1012.2
20260504004532 55 291 1.7 10.4 0.00 0.00 0.00 57 1012.1
20260504003036 56 292 1.7 7.0 0.00 0.00 0.00 49 1011.7
20260504001540 57 226 2.6 11.3 0.00 0.00 0.00 46 1011.7
20260504000034 58 266 1.7 15.6 0.00 0.00 0.00 45 1011.6
20260503234535 59 215 4.3 12.2 0.00 0.00 0.00 45 1011.6
20260503233042 59 277 4.3 12.2 0.00 0.00 0.00 42 1011.8
20260503231536 60 202 3.5 10.4 0.00 0.00 0.00 43 1011.7
20260503230035 61 240 5.2 13.9 0.00 0.00 0.00 42 1011.8
20260503224535 61 242 2.6 11.3 0.00 0.00 0.00 42 1011.7
20260503223034 61 270 7.0 15.6 0.00 0.00 0.00 40 1011.8
20260503221536 62 262 5.2 14.8 0.00 0.00 0.00 41 1012.0
20260503220035 63 251 2.6 13.0 0.00 0.00 0.00 43 1012.0
20260503214535 62 250 3.5 10.4 0.00 0.00 0.00 44 1012.1
20260503213033 62 305 5.2 13.0 0.00 0.00 0.00 42 1012.1
20260503211535 62 226 4.3 13.9 0.00 0.00 0.00 43 1012.1
20260503210034 61 209 4.3 13.0 0.00 0.00 0.00 44 1012.1
20260503204532 61 254 4.3 15.6 0.00 0.00 0.00 44 1012.4
20260503203040 61 129 5.2 13.0 0.00 0.00 0.00 45 1012.3
20260503201543 61 182 4.3 13.9 0.00 0.00 0.00 44 1012.4
20260503200035 63 321 5.2 15.6 0.00 0.00 0.00 41 1012.7
20260503194533 62 205 5.2 18.2 0.00 0.00 0.00 43 1012.9
20260503193031 61 249 3.5 13.0 0.00 0.00 0.00 46 1013.1
20260503191538 61 163 6.1 16.5 0.00 0.00 0.00 44 1013.4
20260503190041 61 288 6.1 14.8 0.00 0.00 0.00 45 1013.5
20260503184538 62 254 6.1 16.5 0.00 0.00 0.00 45 1013.6
20260503183035 61 262 3.5 12.2 0.00 0.00 0.00 49 1013.9
20260503181535 60 86 4.3 14.8 0.00 0.00 0.00 45 1013.9
20260503180045 61 267 5.2 13.0 0.00 0.00 0.00 44 1014.2
20260503174535 61 286 4.3 13.0 0.00 0.00 0.00 46 1014.2
20260503173040 60 218 6.1 13.0 0.00 0.00 0.00 47 1014.4
20260503171536 60 308 6.1 13.9 0.00 0.00 0.00 47 1014.7
20260503081535 35 174 0.0 2.6 0.00 0.12 0.00 82 1016.1
20260503071535 35 0 0.0 0.9 0.00 0.12 0.00 84 1016.2